Weather History for Mosby, MO

Change the Weather History Date:

Wednesday, December 19, 2012

  Actual Average (KMKC) Record (KMKC)
Temperature  
Mean Temperature 36 °F -  
Max Temperature 41 °F 37 °F 59 °F (2013)
Min Temperature 30 °F 21 °F 3 °F (2000)
Degree Days  
Heating Degree Days 30    
Moisture  
Dew Point 33 °F    
Average Humidity 89    
Maximum Humidity 100    
Minimum Humidity 75    
Precipitation  
Precipitation 0.00 in - - ()
Sea Level Pressure  
Sea Level Pressure 29.74 in    
Wind  
Wind Speed 6 mph (East)    
Max Wind Speed 23 mph    
Max Gust Speed 30 mph    
Visibility 8 miles    
Events Rain , Snow , Thunderstorm    
Averages and records for this station are not official NWS values.
T = Trace of Precipitation, MM = Missing Value Source: NWS Daily Summary

Daily Weather History Graph

Daily Weather History Graph

Search for Another Location

Airport:

Trip Planner

Search our weather history database for the weather conditions in past years. The results will help you decide how hot, cold, wet, or windy it might be!

Date:

Astronomy

Dec. 19, 2012 Rise Set
Actual Time 7:32 AM CST 4:56 PM CST
Civil Twilight 7:02 AM CST 5:26 PM CST
Nautical Twilight 6:28 AM CST 6:00 PM CST
Astronomical Twilight 5:56 AM CST 6:33 PM CST
Moon 11:44 AM CST (12/19) No Moon Set
Length of Visible Light 10h 24m
Length of Day
9h 23m
Waxing Crescent, 45% of the Moon is Illuminated
Dec 19
Waxing Crescent
Dec 19
First Quarter
Dec 28
Full
Jan 4
Last Quarter
Jan 11
New

Hourly Weather History & Observations

Time (CST) Temp. Windchill Dew Point Humidity Pressure Visibility Wind Dir Wind Speed Gust Speed Precip Events Conditions
12:15 AM 32.0 °F - 30.2 °F 93% 29.90 in 10.0 mi Calm Calm - N/A   Clear
12:35 AM 30.2 °F - 30.2 °F 100% 29.90 in 10.0 mi Calm Calm - N/A   Clear
12:55 AM 30.2 °F - 30.2 °F 100% 29.89 in 10.0 mi Calm Calm - N/A   Clear
1:15 AM 32.0 °F - 30.2 °F 93% 29.90 in 10.0 mi Calm Calm - N/A   Clear
1:35 AM 30.2 °F - 30.2 °F 100% 29.90 in 10.0 mi Calm Calm - N/A   Unknown
1:55 AM 30.2 °F - 30.2 °F 100% 29.92 in 10.0 mi Calm Calm - N/A   Clear
2:15 AM 32.0 °F - 30.2 °F 93% 29.91 in 10.0 mi Calm Calm - N/A   Clear
2:35 AM 32.0 °F - 30.2 °F 93% 29.91 in 10.0 mi Calm Calm - N/A   Clear
2:55 AM 32.0 °F - 30.2 °F 93% 29.91 in 10.0 mi Calm Calm - N/A   Clear
3:15 AM 32.0 °F - 30.2 °F 93% 29.90 in 10.0 mi Calm Calm - N/A   Clear
3:35 AM 33.8 °F 28.6 °F 32.0 °F 93% 29.90 in 10.0 mi East 5.8 mph - N/A   Clear
3:55 AM 33.8 °F 28.6 °F 32.0 °F 93% 29.88 in 7.0 mi East 5.8 mph - N/A   Clear
4:15 AM 33.8 °F 29.6 °F 32.0 °F 93% 29.86 in 7.0 mi East 4.6 mph - N/A   Unknown
4:35 AM 35.6 °F - 32.0 °F 87% 29.87 in 7.0 mi Calm Calm - N/A   Clear
4:55 AM 33.8 °F - 32.0 °F 93% 29.88 in 7.0 mi Calm Calm - N/A   Clear
5:15 AM 33.8 °F 29.6 °F 32.0 °F 93% 29.89 in 7.0 mi ENE 4.6 mph - N/A   Clear
5:35 AM 33.8 °F 28.6 °F 32.0 °F 93% 29.87 in 7.0 mi East 5.8 mph - N/A   Clear
5:55 AM 33.8 °F 30.8 °F 32.0 °F 93% 29.87 in 7.0 mi East 3.5 mph - N/A   Clear
6:15 AM 35.6 °F - 32.0 °F 87% 29.89 in 7.0 mi Calm Calm - N/A   Clear
6:35 AM 35.6 °F - 32.0 °F 87% 29.90 in 7.0 mi Calm Calm - N/A   Clear
6:55 AM 33.8 °F 28.6 °F 32.0 °F 93% 29.88 in 7.0 mi East 5.8 mph - N/A   Clear
7:15 AM 33.8 °F 27.7 °F 32.0 °F 93% 29.87 in 7.0 mi East 6.9 mph - N/A   Clear
7:35 AM 35.6 °F 29.9 °F 32.0 °F 87% 29.88 in 7.0 mi East 6.9 mph - N/A   Scattered Clouds
7:55 AM 35.6 °F 28.6 °F 32.0 °F 87% 29.87 in 7.0 mi East 9.2 mph - N/A   Mostly Cloudy
8:15 AM 35.6 °F 28.0 °F 32.0 °F 87% 29.87 in 7.0 mi East 10.4 mph - N/A   Scattered Clouds
8:35 AM 35.6 °F 29.9 °F 32.0 °F 87% 29.87 in 7.0 mi ESE 6.9 mph - N/A   Clear
8:55 AM 33.8 °F 25.8 °F 32.0 °F 93% 29.87 in 7.0 mi ESE 10.4 mph - N/A   Clear
9:15 AM 35.6 °F 28.6 °F 32.0 °F 87% 29.86 in 7.0 mi East 9.2 mph - N/A   Clear
9:35 AM 35.6 °F 28.6 °F 32.0 °F 87% 29.87 in 7.0 mi East 9.2 mph - N/A   Clear
9:55 AM 35.6 °F 29.2 °F 32.0 °F 87% 29.87 in 7.0 mi East 8.1 mph - N/A   Clear
10:15 AM 35.6 °F 28.0 °F 32.0 °F 87% 29.86 in 7.0 mi East 10.4 mph - N/A   Clear
10:35 AM 35.6 °F 28.6 °F 32.0 °F 87% 29.85 in 7.0 mi East 9.2 mph - N/A   Clear
10:55 AM 35.6 °F 27.5 °F 32.0 °F 87% 29.85 in 7.0 mi East 11.5 mph - N/A   Scattered Clouds
11:15 AM 35.6 °F 27.1 °F 32.0 °F 87% 29.84 in 10.0 mi East 12.7 mph 17.3 mph N/A   Scattered Clouds
11:35 AM 37.4 °F 30.3 °F 32.0 °F 81% 29.83 in 10.0 mi East 10.4 mph - N/A   Scattered Clouds
11:55 AM 37.4 °F 29.8 °F 32.0 °F 81% 29.81 in 10.0 mi East 11.5 mph 16.1 mph N/A   Scattered Clouds
12:15 PM 37.4 °F 30.3 °F 32.0 °F 81% 29.81 in 10.0 mi East 10.4 mph - N/A   Light Drizzle
12:35 PM 37.4 °F 30.3 °F 32.0 °F 81% 29.79 in 10.0 mi East 10.4 mph 17.3 mph N/A   Light Drizzle
12:55 PM 37.4 °F 29.8 °F 33.8 °F 87% 29.77 in 10.0 mi East 11.5 mph - N/A   Scattered Clouds
1:15 PM 37.4 °F 28.5 °F 33.8 °F 87% 29.75 in 10.0 mi East 15.0 mph - N/A   Clear
1:35 PM 39.2 °F 31.6 °F 33.8 °F 81% 29.74 in 10.0 mi East 12.7 mph 17.3 mph N/A   Clear
1:55 PM 39.2 °F 31.2 °F 32.0 °F 75% 29.70 in 10.0 mi East 13.8 mph 24.2 mph N/A   Unknown
2:15 PM 39.2 °F 30.8 °F 33.8 °F 81% 29.69 in 10.0 mi East 15.0 mph 19.6 mph N/A   Clear
2:35 PM 39.2 °F 31.2 °F 33.8 °F 81% 29.68 in 10.0 mi East 13.8 mph 20.7 mph N/A   Clear
2:55 PM 41.0 °F 33.9 °F 33.8 °F 76% 29.67 in 10.0 mi East 12.7 mph 23.0 mph N/A   Mostly Cloudy
3:15 PM 41.0 °F 34.3 °F 33.8 °F 76% 29.69 in 10.0 mi East 11.5 mph 21.9 mph N/A   Overcast
3:35 PM 41.0 °F 34.7 °F 33.8 °F 76% 29.67 in 10.0 mi East 10.4 mph 21.9 mph N/A   Overcast
3:55 PM 41.0 °F 33.9 °F 33.8 °F 76% 29.68 in 10.0 mi East 12.7 mph 17.3 mph N/A   Overcast
4:15 PM 41.0 °F 33.9 °F 33.8 °F 76% 29.67 in 10.0 mi East 12.7 mph 24.2 mph N/A   Overcast
4:35 PM 39.2 °F 31.6 °F 33.8 °F 81% 29.64 in 10.0 mi East 12.7 mph 23.0 mph N/A   Scattered Clouds
4:55 PM 39.2 °F 31.6 °F 33.8 °F 81% 29.64 in 10.0 mi East 12.7 mph 18.4 mph N/A   Mostly Cloudy
5:15 PM 39.2 °F 32.0 °F 33.8 °F 81% 29.61 in 7.0 mi East 11.5 mph 17.3 mph N/A Thunderstorm Unknown
5:35 PM 37.4 °F 28.9 °F 35.6 °F 93% 29.61 in 7.0 mi East 13.8 mph 24.2 mph N/A   Overcast
5:55 PM 37.4 °F 27.8 °F 35.6 °F 93% 29.60 in 7.0 mi East 17.3 mph 23.0 mph N/A   Overcast
6:15 PM 37.4 °F 28.5 °F 35.6 °F 93% 29.59 in 5.0 mi East 15.0 mph 24.2 mph N/A Thunderstorm Overcast
6:35 PM 37.4 °F 26.4 °F 35.6 °F 93% 29.56 in 5.0 mi East 23.0 mph 27.6 mph N/A   Overcast
6:55 PM 37.4 °F 27.5 °F 35.6 °F 93% 29.54 in 5.0 mi ESE 18.4 mph 29.9 mph N/A Thunderstorm Overcast
7:15 PM 39.2 °F 30.2 °F 35.6 °F 87% 29.56 in 7.0 mi ESE 17.3 mph 21.9 mph N/A Thunderstorm Thunderstorm
7:35 PM 39.2 °F 34.2 °F 35.6 °F 87% 29.57 in 5.0 mi East 6.9 mph - N/A Rain Light Rain
7:55 PM 39.2 °F 35.9 °F 35.6 °F 87% 29.58 in 5.0 mi East 4.6 mph - N/A   Overcast
8:15 PM 39.2 °F 33.6 °F 35.6 °F 87% 29.56 in 5.0 mi East 8.1 mph - N/A   Overcast
8:35 PM 39.2 °F 34.2 °F 37.4 °F 93% 29.54 in 4.0 mi East 6.9 mph - N/A Thunderstorm Overcast
8:55 PM 37.4 °F 30.8 °F 37.4 °F 100% 29.53 in 4.0 mi NNE 9.2 mph - N/A Thunderstorm Overcast
9:15 PM 37.4 °F 32.1 °F 37.4 °F 100% 29.53 in 4.0 mi NNE 6.9 mph - N/A Thunderstorm Overcast
9:35 PM 37.4 °F 30.8 °F 37.4 °F 100% 29.52 in 3.0 mi North 9.2 mph - N/A   Overcast
9:55 PM 37.4 °F 28.2 °F 37.4 °F 100% 29.47 in 1.8 mi ENE 16.1 mph - N/A Rain , Thunderstorm Thunderstorms and Rain
10:15 PM 37.4 °F 28.9 °F 37.4 °F 100% 29.52 in 2.0 mi WNW 13.8 mph 17.3 mph N/A Rain , Thunderstorm Heavy Thunderstorms and Rain
10:35 PM 37.4 °F 29.8 °F 37.4 °F 100% 29.46 in 1.2 mi ENE 11.5 mph 16.1 mph N/A Snow , Thunderstorm Light Thunderstorms and Snow
10:55 PM 39.2 °F 32.5 °F 37.4 °F 93% 29.42 in 3.0 mi East 10.4 mph - N/A Thunderstorm Unknown
11:15 PM 39.2 °F 32.5 °F 37.4 °F 93% 29.45 in 7.0 mi WNW 10.4 mph - N/A   Mostly Cloudy
11:35 PM 37.4 °F 30.8 °F 37.4 °F 100% 29.44 in 7.0 mi NNW 9.2 mph - N/A   Overcast
11:55 PM 37.4 °F 29.3 °F 37.4 °F 100% 29.44 in 7.0 mi NNW 12.7 mph - N/A   Overcast